Location: Newark
(34.9500°N, 139.9667°E)
Time: 07:57:04
(UTC+00:00)

Transit 2A - Pass Details

Date: 13 December 2019
Orbit: 601 x 957 km, 66.7° (Epoch: 20 January)

Event Time Altitude Azimuth Distance (km) Brightness Sun altitude
Rises 05:30:23 0° 343° (NNW) 2,884 8.7 18.5°
Reaches altitude 10° 05:32:47 10° 354° (N) 2,002 7.9 18.1°
Maximum altitude 05:36:50 32° 58° (ENE) 1,112 6.5 17.5°
Drops below altitude 10° 05:41:09 10° 122° (ESE) 2,139 8.3 16.9°
Sets 05:43:47 0° 132° (SE) 3,114 9.1 16.6°
